User: anonymous   Login
Location: Unspecified
(0.0000°N, 0.0000°E)
Time: 20:04:54
(UTC+00:00)
Language:

Explorer 11/Cluster Stage 4 - Orbit

View from above orbital plane
View from above orbital plane
View from above satellite
View from above satellite

Ground track
Ground track

The orbit data is extracted from the following two-line orbital elements,

1 00107U 61013A   16041.52610988  .00001280  00000-0  15483-3 0  9995
2 00107  28.7890 148.4526 0551978 335.5427  21.9865 14.07655381741573
Epoch (UTC): 10 February 2016 12:37:35
Eccentricity: 0.0551978
inclination: 28.7890°
perigee height: 467 km
apogee height: 1267 km
right ascension of ascending node: 148.4526°
argument of perigee: 335.5427°
revolutions per day: 14.07655381
mean anomaly at epoch: 21.9865°
orbit number at epoch: 74157

The dashed part of the orbit path shows where the satellite is in the earth's shadow,  

DLR